Time,TemperatureF,DewpointF,PressureIn,WindDirection,WindDirectionDegrees,WindSpeedMPH,WindSpeedGustMPH,Humidity,HourlyPrecipIn,Conditions,Clouds,dailyrainin,SoftwareType,DateUTC
2013-01-02 00:01:00,30.8,27.7,30.18,NE,46,3.5,3.5,88,0.00,OVC,,0.32,WeatherDisplay:10.37,2013-01-02 05:01:00,
2013-01-02 00:02:00,30.8,27.7,30.18,NE,46,4.0,4.0,88,0.00,RA,,0.00,WeatherDisplay:10.37,2013-01-02 05:02:00,
2013-01-02 00:03:00,30.7,27.6,30.18,NE,45,2.3,2.3,88,0.00,RA,,0.00,WeatherDisplay:10.37,2013-01-02 05:03:00,
2013-01-02 00:07:00,30.7,27.6,30.18,NE,47,6.0,6.0,88,0.00,RA,,0.00,WeatherDisplay:10.37,2013-01-02 05:07:00,
2013-01-02 00:12:00,30.6,27.5,30.18,NE,47,4.6,4.6,88,0.00,OVC,,0.00,WeatherDisplay:10.37,2013-01-02 05:12:00,
2013-01-02 00:17:00,30.6,27.5,30.18,NE,47,4.0,4.0,88,0.00,OVC,,0.00,WeatherDisplay:10.37,2013-01-02 05:17:00,
2013-01-02 00:22:00,30.5,27.1,30.16,NE,47,3.5,3.5,87,0.00,OVC,,0.00,WeatherDisplay:10.37,2013-01-02 05:22:00,
2013-01-02 00:27:00,30.3,26.9,30.17,NE,47,6.0,6.0,87,0.00,OVC,,0.00,WeatherDisplay:10.37,2013-01-02 05:27:00,
2013-01-02 00:32:00,30.1,26.7,30.16,NE,49,5.0,5.0,87,0.00,OVC,,0.00,WeatherDisplay:10.37,2013-01-02 05:32:00,
2013-01-02 00:37:00,30.0,26.6,30.17,NE,49,5.0,5.0,87,0.00,OVC,,0.00,WeatherDisplay:10.37,2013-01-02 05:37:00,
2013-01-02 00:42:00,30.0,26.3,30.17,NE,49,5.0,5.0,86,0.00,OVC,,0.00,WeatherDisplay:10.37,2013-01-02 05:42:00,
2013-01-02 00:47:00,30.1,26.4,30.17,NE,49,5.0,5.0,86,0.00,OVC,,0.00,WeatherDisplay:10.37,2013-01-02 05:47:00,
2013-01-02 00:52:00,30.1,26.1,30.17,NE,49,4.0,4.0,85,0.00,OVC,,0.00,WeatherDisplay:10.37,2013-01-02 05:52:00,
2013-01-02 00:57:00,30.0,26.0,30.16,NE,49,4.0,4.0,85,0.00,OVC,,0.00,WeatherDisplay:10.37,2013-01-02 05:57:00,
2013-01-02 01:02:00,30.0,26.0,30.17,NE,48,4.0,4.0,85,0.00,OVC,,0.00,WeatherDisplay:10.37,2013-01-02 06:02:00,
2013-01-02 01:07:00,30.1,25.8,30.16,NE,49,3.5,3.5,84,0.00,OVC,,0.00,WeatherDisplay:10.37,2013-01-02 06:07:00,
2013-01-02 01:12:00,30.1,25.8,30.17,NE,45,5.8,5.8,84,0.00,OVC,,0.00,WeatherDisplay:10.37,2013-01-02 06:12:00,
2013-01-02 01:17:00,30.0,25.8,30.17,NE,44,4.6,4.6,84,0.00,OVC,,0.00,WeatherDisplay:10.37,2013-01-02 06:17:00,
2013-01-02 01:22:00,30.0,25.8,30.17,NE,43,6.0,6.0,84,0.00,OVC,,0.00,WeatherDisplay:10.37,2013-01-02 06:22:00,
2013-01-02 01:27:00,29.9,25.4,30.17,NE,41,4.0,4.0,83,0.00,OVC,,0.00,WeatherDisplay:10.37,2013-01-02 06:27:00,
2013-01-02 01:32:00,29.9,25.4,30.17,NE,47,6.0,6.0,83,0.00,OVC,,0.00,WeatherDisplay:10.37,2013-01-02 06:32:00,
2013-01-02 01:37:00,29.9,25.4,30.17,NE,48,5.0,5.0,83,0.00,OVC,,0.00,WeatherDisplay:10.37,2013-01-02 06:37:00,
2013-01-02 01:42:00,29.9,25.4,30.17,NE,48,4.0,4.0,83,0.00,OVC,,0.00,WeatherDisplay:10.37,2013-01-02 06:42:00,
2013-01-02 01:47:00,29.8,25.3,30.17,NE,48,2.3,2.3,83,0.00,OVC,,0.00,WeatherDisplay:10.37,2013-01-02 06:47:00,
2013-01-02 01:52:00,29.7,24.9,30.17,NE,49,5.8,5.8,82,0.00,OVC,,0.00,WeatherDisplay:10.37,2013-01-02 06:52:00,
2013-01-02 01:57:00,29.7,24.9,30.17,NE,50,4.0,4.0,82,0.00,OVC,,0.00,WeatherDisplay:10.37,2013-01-02 06:57:00,
2013-01-02 02:02:00,29.7,24.9,30.17,NE,50,1.1,0.0,82,0.00,OVC,,0.00,WeatherDisplay:10.37,2013-01-02 07:02:00,
2013-01-02 02:07:00,29.7,24.6,30.18,NE,50,5.0,5.0,81,0.00,OVC,,0.00,WeatherDisplay:10.37,2013-01-02 07:07:00,
2013-01-02 02:12:00,29.6,24.5,30.17,NE,50,4.0,4.0,81,0.00,OVC,,0.00,WeatherDisplay:10.37,2013-01-02 07:12:00,
2013-01-02 02:17:00,29.6,24.5,30.17,NE,49,5.0,5.0,81,0.00,OVC,,0.00,WeatherDisplay:10.37,2013-01-02 07:17:00,
2013-01-02 02:22:00,29.6,24.5,30.17,NE,49,7.0,7.0,81,0.00,OVC,,0.00,WeatherDisplay:10.37,2013-01-02 07:22:00,
2013-01-02 02:27:00,29.6,24.5,30.17,NE,48,2.0,2.0,81,0.00,OVC,,0.00,WeatherDisplay:10.37,2013-01-02 07:27:00,
2013-01-02 02:32:00,29.5,24.4,30.18,NE,49,4.0,4.0,81,0.00,OVC,,0.00,WeatherDisplay:10.37,2013-01-02 07:32:00,
2013-01-02 02:37:00,29.4,24.3,30.18,NE,48,2.3,2.3,81,0.00,OVC,,0.00,WeatherDisplay:10.37,2013-01-02 07:37:00,
2013-01-02 02:42:00,29.4,24.3,30.19,NE,49,4.0,4.0,81,0.00,OVC,,0.00,WeatherDisplay:10.37,2013-01-02 07:42:00,
2013-01-02 02:47:00,29.3,24.2,30.18,NE,48,4.0,4.0,81,0.00,OVC,,0.00,WeatherDisplay:10.37,2013-01-02 07:47:00,
2013-01-02 02:52:00,29.3,24.2,30.18,NE,49,4.0,4.0,81,0.00,OVC,,0.00,WeatherDisplay:10.37,2013-01-02 07:52:00,
2013-01-02 02:57:00,29.3,24.2,30.18,NE,51,4.6,4.6,81,0.00,OVC,,0.00,WeatherDisplay:10.37,2013-01-02 07:57:00,
2013-01-02 03:02:00,29.2,24.1,30.19,NE,51,5.0,5.0,81,0.00,OVC,,0.00,WeatherDisplay:10.37,2013-01-02 08:02:00,
2013-01-02 03:07:00,29.2,24.1,30.19,NE,51,6.0,6.0,81,0.00,OVC,,0.00,WeatherDisplay:10.37,2013-01-02 08:07:00,
2013-01-02 03:12:00,29.2,24.1,30.19,NE,51,5.0,5.0,81,0.00,OVC,,0.00,WeatherDisplay:10.37,2013-01-02 08:12:00,
2013-01-02 03:17:00,29.1,24.0,30.19,NE,52,4.0,4.0,81,0.00,OVC,,0.00,WeatherDisplay:10.37,2013-01-02 08:17:00,
2013-01-02 03:22:00,29.1,24.0,30.19,NE,52,3.5,3.5,81,0.00,OVC,,0.00,WeatherDisplay:10.37,2013-01-02 08:22:00,
2013-01-02 03:27:00,29.0,23.9,30.19,NE,51,6.0,6.0,81,0.00,OVC,,0.00,WeatherDisplay:10.37,2013-01-02 08:27:00,
2013-01-02 03:32:00,28.8,23.4,30.19,NE,50,4.6,4.6,80,0.00,OVC,,0.00,WeatherDisplay:10.37,2013-01-02 08:32:00,
2013-01-02 03:37:00,28.8,23.4,30.20,NE,49,4.6,4.6,80,0.00,OVC,,0.00,WeatherDisplay:10.37,2013-01-02 08:37:00,
2013-01-02 03:42:00,28.7,23.3,30.19,NE,50,4.6,4.6,80,0.00,OVC,,0.00,WeatherDisplay:10.37,2013-01-02 08:42:00,
2013-01-02 03:47:00,28.7,23.0,30.20,NE,47,7.0,7.0,79,0.00,OVC,,0.00,WeatherDisplay:10.37,2013-01-02 08:47:00,
2013-01-02 03:52:00,28.7,23.3,30.20,NE,47,5.8,5.8,80,0.00,OVC,,0.00,WeatherDisplay:10.37,2013-01-02 08:52:00,
2013-01-02 03:57:00,28.6,23.2,30.20,NE,48,4.0,4.0,80,0.00,OVC,,0.00,WeatherDisplay:10.37,2013-01-02 08:57:00,
2013-01-02 04:02:00,28.5,23.1,30.20,NE,49,4.0,4.0,80,0.00,OVC,,0.00,WeatherDisplay:10.37,2013-01-02 09:02:00,
2013-01-02 04:07:00,28.5,23.1,30.21,NE,49,2.3,2.3,80,0.00,OVC,,0.00,WeatherDisplay:10.37,2013-01-02 09:07:00,
2013-01-02 04:12:00,28.4,23.0,30.21,NE,50,4.0,4.0,80,0.00,OVC,,0.00,WeatherDisplay:10.37,2013-01-02 09:12:00,
2013-01-02 04:17:00,28.4,23.0,30.21,NE,49,3.5,3.5,80,0.00,OVC,,0.00,WeatherDisplay:10.37,2013-01-02 09:17:00,
2013-01-02 04:22:00,28.4,23.0,30.21,NE,49,3.0,3.0,80,0.00,OVC,,0.00,WeatherDisplay:10.37,2013-01-02 09:22:00,
2013-01-02 04:27:00,28.4,23.0,30.21,NE,48,3.5,3.5,80,0.00,OVC,,0.00,WeatherDisplay:10.37,2013-01-02 09:27:00,
2013-01-02 04:32:00,28.3,22.9,30.21,NE,49,3.5,3.5,80,0.00,OVC,,0.00,WeatherDisplay:10.37,2013-01-02 09:32:00,
2013-01-02 04:37:00,28.4,23.0,30.21,NE,49,8.1,8.1,80,0.00,OVC,,0.00,WeatherDisplay:10.37,2013-01-02 09:37:00,
2013-01-02 04:42:00,28.2,22.8,30.21,NE,49,5.0,5.0,80,0.00,OVC,,0.00,WeatherDisplay:10.37,2013-01-02 09:42:00,
2013-01-02 04:47:00,28.1,22.7,30.21,NE,52,7.0,7.0,80,0.00,OVC,,0.00,WeatherDisplay:10.37,2013-01-02 09:47:00,
2013-01-02 04:52:00,28.1,22.7,30.21,NE,52,5.8,5.8,80,0.00,OVC,,0.00,WeatherDisplay:10.37,2013-01-02 09:52:00,
2013-01-02 04:57:00,28.0,22.3,30.21,NE,53,5.8,5.8,79,0.00,OVC,,0.00,WeatherDisplay:10.37,2013-01-02 09:57:00,
2013-01-02 05:02:00,28.0,22.6,30.21,NE,53,2.3,2.3,80,0.00,OVC,,0.00,WeatherDisplay:10.37,2013-01-02 10:02:00,
2013-01-02 05:07:00,27.8,22.4,30.21,NE,53,2.3,2.3,80,0.00,OVC,,0.00,WeatherDisplay:10.37,2013-01-02 10:07:00,
2013-01-02 05:12:00,27.6,22.2,30.21,NE,53,5.0,5.0,80,0.00,OVC,,0.00,WeatherDisplay:10.37,2013-01-02 10:12:00,
2013-01-02 05:17:00,27.3,21.9,30.22,NE,54,2.0,2.0,80,0.00,OVC,,0.00,WeatherDisplay:10.37,2013-01-02 10:17:00,
2013-01-02 05:22:00,27.0,21.7,30.22,NE,53,2.3,2.3,80,0.00,OVC,,0.00,WeatherDisplay:10.37,2013-01-02 10:22:00,
2013-01-02 05:27:00,26.8,21.2,30.21,NE,53,3.5,3.5,79,0.00,OVC,,0.00,WeatherDisplay:10.37,2013-01-02 10:27:00,
2013-01-02 05:32:00,26.7,21.4,30.21,NE,53,3.5,3.5,80,0.00,OVC,,0.00,WeatherDisplay:10.37,2013-01-02 10:32:00,
2013-01-02 05:37:00,26.5,21.2,30.21,NE,53,3.5,3.5,80,0.00,OVC,,0.00,WeatherDisplay:10.37,2013-01-02 10:37:00,
2013-01-02 05:42:00,26.3,21.0,30.22,NE,52,4.6,4.6,80,0.00,OVC,,0.00,WeatherDisplay:10.37,2013-01-02 10:42:00,
2013-01-02 05:47:00,26.2,20.9,30.22,NE,52,6.0,6.0,80,0.00,OVC,,0.00,WeatherDisplay:10.37,2013-01-02 10:47:00,
2013-01-02 05:52:00,26.1,20.8,30.22,NE,52,3.5,3.5,80,0.00,OVC,,0.00,WeatherDisplay:10.37,2013-01-02 10:52:00,
2013-01-02 05:57:00,26.0,20.7,30.22,NE,52,4.0,4.0,80,0.00,OVC,,0.00,WeatherDisplay:10.37,2013-01-02 10:57:00,
2013-01-02 06:02:00,25.9,20.6,30.22,NE,52,4.0,4.0,80,0.00,SCT,,0.00,WeatherDisplay:10.37,2013-01-02 11:02:00,
2013-01-02 06:07:00,25.8,20.5,30.21,NE,52,3.5,3.5,80,0.00,SCT,,0.00,WeatherDisplay:10.37,2013-01-02 11:07:00,
2013-01-02 06:12:00,25.6,20.3,30.21,NE,52,1.1,0.0,80,0.00,SCT,,0.00,WeatherDisplay:10.37,2013-01-02 11:12:00,
2013-01-02 06:17:00,25.5,20.2,30.22,NE,52,0.0,0.0,80,0.00,SCT,,0.00,WeatherDisplay:10.37,2013-01-02 11:17:00,
2013-01-02 06:22:00,25.4,20.1,30.22,NE,52,2.0,2.0,80,0.00,SCT,,0.00,WeatherDisplay:10.37,2013-01-02 11:22:00,
2013-01-02 06:27:00,25.3,20.0,30.22,NE,52,1.1,0.0,80,0.00,SCT,,0.00,WeatherDisplay:10.37,2013-01-02 11:27:00,
2013-01-02 06:32:00,25.2,19.9,30.22,NE,52,3.5,3.5,80,0.00,SCT,,0.00,WeatherDisplay:10.37,2013-01-02 11:32:00,
2013-01-02 06:37:00,25.1,19.8,30.23,NE,52,3.5,3.5,80,0.00,SCT,,0.00,WeatherDisplay:10.37,2013-01-02 11:37:00,
2013-01-02 06:42:00,25.0,19.7,30.23,NE,52,2.3,2.3,80,0.00,SCT,,0.00,WeatherDisplay:10.37,2013-01-02 11:42:00,
2013-01-02 06:47:00,24.9,19.9,30.23,NE,52,2.3,2.3,81,0.00,SCT,,0.00,WeatherDisplay:10.37,2013-01-02 11:47:00,
2013-01-02 06:52:00,24.8,19.8,30.23,NE,52,1.1,0.0,81,0.00,SCT,,0.00,WeatherDisplay:10.37,2013-01-02 11:52:00,
2013-01-02 06:57:00,24.7,19.7,30.23,NE,52,0.0,0.0,81,0.00,SCT,,0.00,WeatherDisplay:10.37,2013-01-02 11:57:00,
2013-01-02 07:02:00,24.5,19.2,30.23,NE,52,0.0,0.0,80,0.00,CLR,,0.00,WeatherDisplay:10.37,2013-01-02 12:02:00,
2013-01-02 07:07:00,24.4,19.4,30.23,NE,52,0.0,0.0,81,0.00,CLR,,0.00,WeatherDisplay:10.37,2013-01-02 12:07:00,
2013-01-02 07:12:00,24.3,19.3,30.23,NE,52,0.0,0.0,81,0.00,CLR,,0.00,WeatherDisplay:10.37,2013-01-02 12:12:00,
2013-01-02 07:17:00,24.2,19.2,30.24,NE,52,0.0,0.0,81,0.00,CLR,,0.00,WeatherDisplay:10.37,2013-01-02 12:17:00,
2013-01-02 07:22:00,24.2,19.2,30.24,NE,52,2.3,2.3,81,0.00,CLR,,0.00,WeatherDisplay:10.37,2013-01-02 12:22:00,
2013-01-02 07:27:00,24.2,19.5,30.24,NE,52,1.1,1.1,82,0.00,CLR,,0.00,WeatherDisplay:10.37,2013-01-02 12:27:00,
2013-01-02 07:32:00,24.2,19.5,30.26,NE,52,0.0,0.0,82,0.00,CLR,,0.00,WeatherDisplay:10.37,2013-01-02 12:32:00,
2013-01-02 07:37:00,24.2,19.5,30.26,NE,52,0.0,0.0,82,0.00,CLR,,0.00,WeatherDisplay:10.37,2013-01-02 12:37:00,
2013-01-02 07:42:00,24.1,19.4,30.26,NE,52,2.3,2.3,82,0.00,CLR,,0.00,WeatherDisplay:10.37,2013-01-02 12:42:00,
2013-01-02 07:47:00,24.1,19.4,30.25,NE,52,1.1,1.1,82,0.00,CLR,,0.00,WeatherDisplay:10.37,2013-01-02 12:47:00,
2013-01-02 07:52:00,24.1,19.4,30.25,NE,52,1.1,1.1,82,0.00,CLR,,0.00,WeatherDisplay:10.37,2013-01-02 12:52:00,
2013-01-02 07:57:00,24.0,19.3,30.26,NE,52,1.1,0.0,82,0.00,CLR,,0.00,WeatherDisplay:10.37,2013-01-02 12:57:00,
2013-01-02 08:02:00,23.9,19.2,30.26,NE,52,1.1,0.0,82,0.00,OVC,,0.00,WeatherDisplay:10.37,2013-01-02 13:02:00,
2013-01-02 08:07:00,23.9,19.2,30.25,NE,52,1.1,1.1,82,0.00,OVC,,0.00,WeatherDisplay:10.37,2013-01-02 13:07:00,
2013-01-02 08:12:00,23.9,19.2,30.25,NE,52,2.3,2.3,82,0.00,OVC,,0.00,WeatherDisplay:10.37,2013-01-02 13:12:00,
2013-01-02 08:17:00,23.9,19.2,30.25,NE,52,2.3,2.3,82,0.00,OVC,,0.00,WeatherDisplay:10.37,2013-01-02 13:17:00,
2013-01-02 08:22:00,23.8,19.1,30.25,NE,52,0.0,0.0,82,0.00,OVC,,0.00,WeatherDisplay:10.37,2013-01-02 13:22:00,
2013-01-02 08:27:00,23.8,19.1,30.24,NE,52,2.3,2.3,82,0.00,OVC,,0.00,WeatherDisplay:10.37,2013-01-02 13:27:00,
2013-01-02 08:32:00,23.7,19.0,30.25,NE,52,2.3,2.3,82,0.00,OVC,,0.00,WeatherDisplay:10.37,2013-01-02 13:32:00,
2013-01-02 08:37:00,23.7,19.0,30.25,NE,52,1.1,0.0,82,0.00,OVC,,0.00,WeatherDisplay:10.37,2013-01-02 13:37:00,
2013-01-02 08:42:00,23.7,19.0,30.26,NE,52,1.1,0.0,82,0.00,OVC,,0.00,WeatherDisplay:10.37,2013-01-02 13:42:00,
2013-01-02 08:47:00,23.7,19.3,30.26,NE,52,2.3,2.3,83,0.00,OVC,,0.00,WeatherDisplay:10.37,2013-01-02 13:47:00,
2013-01-02 08:52:00,23.7,19.3,30.26,NE,52,2.3,2.3,83,0.00,OVC,,0.00,WeatherDisplay:10.37,2013-01-02 13:52:00,
2013-01-02 08:57:00,23.8,19.4,30.26,NE,52,2.3,0.0,83,0.00,OVC,,0.00,WeatherDisplay:10.37,2013-01-02 13:57:00,
2013-01-02 09:02:00,24.0,19.6,30.26,NE,52,0.0,0.0,83,0.00,SCT,,0.00,WeatherDisplay:10.37,2013-01-02 14:02:00,
2013-01-02 09:07:00,24.2,19.8,30.26,NE,52,1.0,1.0,83,0.00,SCT,,0.00,WeatherDisplay:10.37,2013-01-02 14:07:00,
2013-01-02 09:12:00,24.4,20.0,30.26,NE,52,1.1,1.1,83,0.00,SCT,,0.00,WeatherDisplay:10.37,2013-01-02 14:12:00,
2013-01-02 09:17:00,24.6,19.9,30.26,NE,52,1.1,1.1,82,0.00,SCT,,0.00,WeatherDisplay:10.37,2013-01-02 14:17:00,
2013-01-02 09:22:00,24.8,20.1,30.27,NE,52,1.0,0.0,82,0.00,SCT,,0.00,WeatherDisplay:10.37,2013-01-02 14:22:00,
2013-01-02 09:27:00,24.9,20.2,30.27,NE,52,2.3,2.3,82,0.00,SCT,,0.00,WeatherDisplay:10.37,2013-01-02 14:27:00,
2013-01-02 09:32:00,24.9,20.2,30.27,NE,52,2.3,2.3,82,0.00,SCT,,0.00,WeatherDisplay:10.37,2013-01-02 14:32:00,
2013-01-02 09:37:00,25.0,20.3,30.27,NE,52,0.0,0.0,82,0.00,SCT,,0.00,WeatherDisplay:10.37,2013-01-02 14:37:00,
2013-01-02 09:42:00,25.2,20.5,30.27,NE,52,1.1,1.1,82,0.00,SCT,,0.00,WeatherDisplay:10.37,2013-01-02 14:42:00,
2013-01-02 09:47:00,25.3,20.6,30.27,NE,52,2.3,2.3,82,0.00,SCT,,0.00,WeatherDisplay:10.37,2013-01-02 14:47:00,
2013-01-02 09:52:00,25.6,20.9,30.27,NE,52,1.1,1.1,82,0.00,SCT,,0.00,WeatherDisplay:10.37,2013-01-02 14:52:00,
2013-01-02 09:57:00,25.8,20.8,30.27,NE,52,2.3,2.3,81,0.00,SCT,,0.00,WeatherDisplay:10.37,2013-01-02 14:57:00,
2013-01-02 10:02:00,26.1,21.1,30.28,NE,52,0.0,0.0,81,0.00,SCT,,0.00,WeatherDisplay:10.37,2013-01-02 15:02:00,
2013-01-02 10:07:00,26.2,21.2,30.28,NE,52,1.1,1.1,81,0.00,CLR,,0.00,WeatherDisplay:10.37,2013-01-02 15:07:00,
2013-01-02 10:12:00,26.4,21.1,30.28,NE,52,3.0,3.0,80,0.00,CLR,,0.00,WeatherDisplay:10.37,2013-01-02 15:12:00,
2013-01-02 10:17:00,26.7,21.4,30.28,NE,52,1.0,1.0,80,0.00,CLR,,0.00,WeatherDisplay:10.37,2013-01-02 15:17:00,
2013-01-02 10:22:00,27.0,21.7,30.28,NE,52,0.0,0.0,80,0.00,CLR,,0.00,WeatherDisplay:10.37,2013-01-02 15:22:00,
2013-01-02 10:27:00,27.2,21.5,30.28,NE,52,2.3,2.3,79,0.00,CLR,,0.00,WeatherDisplay:10.37,2013-01-02 15:27:00,
2013-01-02 10:32:00,27.8,22.1,30.28,NE,52,1.1,0.0,79,0.00,CLR,,0.00,WeatherDisplay:10.37,2013-01-02 15:32:00,
2013-01-02 10:37:00,28.3,22.3,30.29,NE,52,1.1,0.0,78,0.00,CLR,,0.00,WeatherDisplay:10.37,2013-01-02 15:37:00,
2013-01-02 10:42:00,28.6,22.3,30.28,NE,52,0.0,0.0,77,0.00,CLR,,0.00,WeatherDisplay:10.37,2013-01-02 15:42:00,
2013-01-02 10:47:00,28.7,22.1,30.29,NE,52,3.5,3.5,76,0.00,CLR,,0.00,WeatherDisplay:10.37,2013-01-02 15:47:00,
2013-01-02 10:52:00,28.6,21.7,30.29,NE,52,2.0,2.0,75,0.00,CLR,,0.00,WeatherDisplay:10.37,2013-01-02 15:52:00,
2013-01-02 10:57:00,28.8,21.9,30.29,NE,52,0.0,0.0,75,0.00,CLR,,0.00,WeatherDisplay:10.37,2013-01-02 15:57:00,
2013-01-02 11:02:00,28.9,21.7,30.29,NE,52,2.3,0.0,74,0.00,CLR,,0.00,WeatherDisplay:10.37,2013-01-02 16:02:00,
2013-01-02 11:07:00,29.0,21.7,30.30,NE,52,3.5,3.5,74,0.00,CLR,,0.00,WeatherDisplay:10.37,2013-01-02 16:07:00,
2013-01-02 11:12:00,29.3,22.0,30.29,NE,52,3.0,3.0,74,0.00,CLR,,0.00,WeatherDisplay:10.37,2013-01-02 16:12:00,
2013-01-02 11:17:00,29.4,21.8,30.29,NE,52,1.1,1.1,73,0.00,CLR,,0.00,WeatherDisplay:10.37,2013-01-02 16:17:00,
2013-01-02 11:22:00,29.4,21.8,30.29,NE,52,0.0,0.0,73,0.00,CLR,,0.00,WeatherDisplay:10.37,2013-01-02 16:22:00,
2013-01-02 11:27:00,29.4,22.1,30.29,NE,52,2.3,2.3,74,0.00,CLR,,0.00,WeatherDisplay:10.37,2013-01-02 16:27:00,
2013-01-02 11:32:00,29.5,21.9,30.28,NE,52,2.3,2.3,73,0.00,CLR,,0.00,WeatherDisplay:10.37,2013-01-02 16:32:00,
2013-01-02 11:37:00,29.4,21.8,30.29,NE,52,3.5,3.5,73,0.00,CLR,,0.00,WeatherDisplay:10.37,2013-01-02 16:37:00,
2013-01-02 11:42:00,29.4,22.1,30.29,NE,52,2.0,2.0,74,0.00,CLR,,0.00,WeatherDisplay:10.37,2013-01-02 16:42:00,
2013-01-02 11:47:00,29.7,22.1,30.29,NE,52,2.0,2.0,73,0.00,CLR,,0.00,WeatherDisplay:10.37,2013-01-02 16:47:00,
2013-01-02 11:52:00,30.0,21.7,30.29,NE,52,3.0,3.0,71,0.00,CLR,,0.00,WeatherDisplay:10.37,2013-01-02 16:52:00,
2013-01-02 11:57:00,30.2,22.6,30.29,NE,49,4.0,4.0,73,0.00,CLR,,0.00,WeatherDisplay:10.37,2013-01-02 16:57:00,
2013-01-02 12:02:00,30.1,22.5,30.28,NE,43,6.0,6.0,73,0.00,BKN,,0.00,WeatherDisplay:10.37,2013-01-02 17:02:00,
2013-01-02 12:07:00,29.7,22.1,30.28,NE,41,3.5,3.5,73,0.01,RA,,0.01,WeatherDisplay:10.37,2013-01-02 17:07:00,
2013-01-02 12:12:00,29.3,21.4,30.28,NE,41,2.3,2.3,72,0.01,RA,,0.01,WeatherDisplay:10.37,2013-01-02 17:12:00,
2013-01-02 12:17:00,29.5,21.6,30.28,NE,41,2.0,2.0,72,0.01,BKN,,0.01,WeatherDisplay:10.37,2013-01-02 17:17:00,
2013-01-02 12:22:00,30.0,22.1,30.27,NE,42,3.5,3.5,72,0.01,BKN,,0.01,WeatherDisplay:10.37,2013-01-02 17:22:00,
2013-01-02 12:27:00,30.8,22.5,30.26,NE,41,4.0,4.0,71,0.01,BKN,,0.01,WeatherDisplay:10.37,2013-01-02 17:27:00,
2013-01-02 12:32:00,31.0,23.0,30.27,NNE,24,3.5,3.5,72,0.01,BKN,,0.01,WeatherDisplay:10.37,2013-01-02 17:32:00,
2013-01-02 12:37:00,30.7,22.4,30.27,NNE,27,5.0,5.0,71,0.01,BKN,,0.01,WeatherDisplay:10.37,2013-01-02 17:37:00,
2013-01-02 12:42:00,30.2,21.9,30.26,NNE,28,2.3,2.3,71,0.01,BKN,,0.01,WeatherDisplay:10.37,2013-01-02 17:42:00,
2013-01-02 12:47:00,30.0,21.7,30.26,NNE,28,3.5,3.5,71,0.01,BKN,,0.01,WeatherDisplay:10.37,2013-01-02 17:47:00,
2013-01-02 12:52:00,30.2,21.9,30.26,NNE,28,3.5,3.5,71,0.01,BKN,,0.01,WeatherDisplay:10.37,2013-01-02 17:52:00,
2013-01-02 12:57:00,30.5,22.5,30.26,NNE,20,5.0,5.0,72,0.01,BKN,,0.01,WeatherDisplay:10.37,2013-01-02 17:57:00,
2013-01-02 13:02:00,31.0,22.7,30.26,NNE,20,3.5,3.5,71,0.01,BKN,,0.01,WeatherDisplay:10.37,2013-01-02 18:02:00,
2013-01-02 13:07:00,31.0,22.4,30.26,NNE,19,3.5,3.5,70,0.00,BKN,,0.01,WeatherDisplay:10.37,2013-01-02 18:07:00,
2013-01-02 13:12:00,31.1,22.5,30.26,NNE,18,2.0,2.0,70,0.00,BKN,,0.01,WeatherDisplay:10.37,2013-01-02 18:12:00,
2013-01-02 13:17:00,31.3,22.0,30.26,NNE,18,0.0,0.0,68,0.00,BKN,,0.01,WeatherDisplay:10.37,2013-01-02 18:17:00,
2013-01-02 13:22:00,31.8,22.4,30.25,NNE,19,1.0,1.0,68,0.00,BKN,,0.01,WeatherDisplay:10.37,2013-01-02 18:22:00,
2013-01-02 13:27:00,31.7,21.6,30.25,NNE,19,2.3,0.0,66,0.00,BKN,,0.01,WeatherDisplay:10.37,2013-01-02 18:27:00,
2013-01-02 13:32:00,31.8,22.4,30.25,NNE,19,3.5,3.5,68,0.00,BKN,,0.01,WeatherDisplay:10.37,2013-01-02 18:32:00,
2013-01-02 13:37:00,31.7,22.3,30.25,NNE,18,3.5,3.5,68,0.00,BKN,,0.01,WeatherDisplay:10.37,2013-01-02 18:37:00,
2013-01-02 13:42:00,31.4,22.1,30.25,NNE,20,2.3,2.3,68,0.00,BKN,,0.01,WeatherDisplay:10.37,2013-01-02 18:42:00,
2013-01-02 13:47:00,31.4,22.1,30.25,NNE,20,3.0,3.0,68,0.00,BKN,,0.01,WeatherDisplay:10.37,2013-01-02 18:47:00,
2013-01-02 13:52:00,31.5,21.8,30.25,NNE,20,1.1,0.0,67,0.00,BKN,,0.01,WeatherDisplay:10.37,2013-01-02 18:52:00,
2013-01-02 13:57:00,32.4,23.0,30.25,NNE,20,1.1,1.1,68,0.00,BKN,,0.01,WeatherDisplay:10.37,2013-01-02 18:57:00,
2013-01-02 14:02:00,33.0,23.2,30.25,NNE,20,3.5,3.5,67,0.00,CLR,,0.01,WeatherDisplay:10.37,2013-01-02 19:02:00,
2013-01-02 14:07:00,33.4,24.0,30.25,NNE,20,1.1,1.1,68,0.00,CLR,,0.01,WeatherDisplay:10.37,2013-01-02 19:07:00,
2013-01-02 14:12:00,33.1,23.0,30.25,NNE,18,4.0,4.0,66,0.00,CLR,,0.01,WeatherDisplay:10.37,2013-01-02 19:12:00,
2013-01-02 14:17:00,32.7,22.9,30.25,NNE,25,7.0,7.0,67,0.00,CLR,,0.01,WeatherDisplay:10.37,2013-01-02 19:17:00,
2013-01-02 14:22:00,32.4,22.3,30.24,NNE,25,3.5,3.5,66,0.00,CLR,,0.01,WeatherDisplay:10.37,2013-01-02 19:22:00,
2013-01-02 14:27:00,32.4,22.3,30.24,NNE,25,6.0,6.0,66,0.00,CLR,,0.01,WeatherDisplay:10.37,2013-01-02 19:27:00,
2013-01-02 14:32:00,32.5,21.7,30.24,NNE,26,2.3,2.3,64,0.00,CLR,,0.01,WeatherDisplay:10.37,2013-01-02 19:32:00,
2013-01-02 14:37:00,32.6,21.4,30.23,NNE,25,3.5,3.5,63,0.00,CLR,,0.01,WeatherDisplay:10.37,2013-01-02 19:37:00,
2013-01-02 14:42:00,32.8,21.6,30.23,NNE,25,0.0,0.0,63,0.00,CLR,,0.01,WeatherDisplay:10.37,2013-01-02 19:42:00,
2013-01-02 14:47:00,33.4,21.8,30.23,NNE,25,1.1,1.1,62,0.00,CLR,,0.01,WeatherDisplay:10.37,2013-01-02 19:47:00,
2013-01-02 14:52:00,34.2,22.5,30.23,NNE,25,4.0,4.0,62,0.00,CLR,,0.01,WeatherDisplay:10.37,2013-01-02 19:52:00,
2013-01-02 14:57:00,34.4,23.5,30.24,NNE,25,4.0,4.0,64,0.00,CLR,,0.01,WeatherDisplay:10.37,2013-01-02 19:57:00,
2013-01-02 15:02:00,34.4,23.5,30.24,NNE,27,3.5,3.5,64,0.00,CLR,,0.01,WeatherDisplay:10.37,2013-01-02 20:02:00,
2013-01-02 15:07:00,34.4,23.5,30.25,NNE,26,2.0,2.0,64,0.00,CLR,,0.01,WeatherDisplay:10.37,2013-01-02 20:07:00,
2013-01-02 15:12:00,34.4,23.8,30.24,NNE,27,5.0,5.0,65,0.00,CLR,,0.01,WeatherDisplay:10.37,2013-01-02 20:12:00,
2013-01-02 15:17:00,33.8,22.5,30.24,NNE,26,3.5,3.5,63,0.00,CLR,,0.01,WeatherDisplay:10.37,2013-01-02 20:17:00,
2013-01-02 15:22:00,33.5,22.2,30.24,NNE,28,5.0,5.0,63,0.00,CLR,,0.01,WeatherDisplay:10.37,2013-01-02 20:22:00,
2013-01-02 15:27:00,33.5,22.6,30.24,NNE,28,3.5,3.5,64,0.00,CLR,,0.01,WeatherDisplay:10.37,2013-01-02 20:27:00,
2013-01-02 15:32:00,33.1,22.2,30.24,NNE,28,3.5,3.5,64,0.00,CLR,,0.01,WeatherDisplay:10.37,2013-01-02 20:32:00,
2013-01-02 15:37:00,32.8,22.3,30.24,NNE,28,2.3,2.3,65,0.00,CLR,,0.01,WeatherDisplay:10.37,2013-01-02 20:37:00,
2013-01-02 15:42:00,32.9,22.4,30.24,NNE,28,2.3,2.3,65,0.00,CLR,,0.01,WeatherDisplay:10.37,2013-01-02 20:42:00,
2013-01-02 15:47:00,32.8,22.0,30.24,NNE,28,5.0,5.0,64,0.00,CLR,,0.01,WeatherDisplay:10.37,2013-01-02 20:47:00,
2013-01-02 15:52:00,32.4,21.9,30.24,NNE,28,0.0,0.0,65,0.00,CLR,,0.01,WeatherDisplay:10.37,2013-01-02 20:52:00,
2013-01-02 15:57:00,32.4,21.9,30.24,NNE,28,3.0,3.0,65,0.00,CLR,,0.01,WeatherDisplay:10.37,2013-01-02 20:57:00,
2013-01-02 16:02:00,32.5,22.0,30.25,NNE,28,3.5,3.5,65,0.00,CLR,,0.01,WeatherDisplay:10.37,2013-01-02 21:02:00,
2013-01-02 16:07:00,32.6,22.1,30.24,NNE,28,0.0,0.0,65,0.00,CLR,,0.01,WeatherDisplay:10.37,2013-01-02 21:07:00,
2013-01-02 16:12:00,32.7,21.9,30.25,NNE,28,3.5,3.5,64,0.00,CLR,,0.01,WeatherDisplay:10.37,2013-01-02 21:12:00,
2013-01-02 16:17:00,32.4,21.6,30.25,NNE,28,3.5,3.5,64,0.00,CLR,,0.01,WeatherDisplay:10.37,2013-01-02 21:17:00,
2013-01-02 16:22:00,32.1,21.3,30.24,NNE,28,3.5,3.5,64,0.00,CLR,,0.01,WeatherDisplay:10.37,2013-01-02 21:22:00,
2013-01-02 16:27:00,32.1,21.7,30.24,NNE,28,5.0,5.0,65,0.00,CLR,,0.01,WeatherDisplay:10.37,2013-01-02 21:27:00,
2013-01-02 16:32:00,32.1,21.7,30.24,NNE,28,2.3,2.3,65,0.00,CLR,,0.01,WeatherDisplay:10.37,2013-01-02 21:32:00,
2013-01-02 16:37:00,31.7,21.3,30.24,NNE,28,4.0,4.0,65,0.00,CLR,,0.01,WeatherDisplay:10.37,2013-01-02 21:37:00,
2013-01-02 16:42:00,31.6,21.5,30.23,NNE,28,0.0,0.0,66,0.00,CLR,,0.01,WeatherDisplay:10.37,2013-01-02 21:42:00,
2013-01-02 16:47:00,31.5,21.1,30.23,NNE,28,2.3,2.3,65,0.00,CLR,,0.01,WeatherDisplay:10.37,2013-01-02 21:47:00,
2013-01-02 16:52:00,31.4,21.3,30.23,NNE,28,0.0,0.0,66,0.00,CLR,,0.01,WeatherDisplay:10.37,2013-01-02 21:52:00,
2013-01-02 16:57:00,31.2,21.2,30.24,NNE,28,3.0,3.0,66,0.00,CLR,,0.01,WeatherDisplay:10.37,2013-01-02 21:57:00,
2013-01-02 17:02:00,31.0,21.0,30.24,NNE,28,2.3,2.3,66,0.00,CLR,,0.01,WeatherDisplay:10.37,2013-01-02 22:02:00,
2013-01-02 17:07:00,30.9,20.9,30.24,NNE,28,2.3,2.3,66,0.00,CLR,,0.01,WeatherDisplay:10.37,2013-01-02 22:07:00,
2013-01-02 17:12:00,30.8,20.8,30.24,NNE,28,2.0,2.0,66,0.00,CLR,,0.01,WeatherDisplay:10.37,2013-01-02 22:12:00,
2013-01-02 17:17:00,30.7,21.0,30.24,NNE,28,2.3,2.3,67,0.00,CLR,,0.01,WeatherDisplay:10.37,2013-01-02 22:17:00,
2013-01-02 17:22:00,30.5,20.8,30.24,NNE,28,1.1,1.1,67,0.00,CLR,,0.01,WeatherDisplay:10.37,2013-01-02 22:22:00,
2013-01-02 17:27:00,30.4,21.1,30.24,NNE,28,3.5,3.5,68,0.00,CLR,,0.01,WeatherDisplay:10.37,2013-01-02 22:27:00,
2013-01-02 17:32:00,30.2,20.9,30.24,NNE,28,3.5,3.5,68,0.00,CLR,,0.01,WeatherDisplay:10.37,2013-01-02 22:32:00,
2013-01-02 17:37:00,30.1,21.2,30.25,NNE,28,2.3,2.3,69,0.00,CLR,,0.01,WeatherDisplay:10.37,2013-01-02 22:37:00,
2013-01-02 17:42:00,29.9,21.0,30.25,NNE,28,2.3,2.3,69,0.00,CLR,,0.01,WeatherDisplay:10.37,2013-01-02 22:42:00,
2013-01-02 17:47:00,29.8,20.9,30.25,NNE,28,0.0,0.0,69,0.00,CLR,,0.01,WeatherDisplay:10.37,2013-01-02 22:47:00,
2013-01-02 17:52:00,29.7,21.1,30.25,NNE,28,1.1,0.0,70,0.00,CLR,,0.01,WeatherDisplay:10.37,2013-01-02 22:52:00,
2013-01-02 17:57:00,29.6,21.0,30.25,NNE,28,3.5,3.5,70,0.00,CLR,,0.01,WeatherDisplay:10.37,2013-01-02 22:57:00,
2013-01-02 18:02:00,29.6,21.0,30.25,NNE,28,2.3,2.3,70,0.00,CLR,,0.01,WeatherDisplay:10.37,2013-01-02 23:02:00,
2013-01-02 18:07:00,29.5,20.9,30.25,NNE,28,2.3,2.3,70,0.00,CLR,,0.01,WeatherDisplay:10.37,2013-01-02 23:07:00,
2013-01-02 18:12:00,29.4,20.8,30.26,NNE,28,2.3,0.0,70,0.00,CLR,,0.01,WeatherDisplay:10.37,2013-01-02 23:12:00,
2013-01-02 18:17:00,29.4,20.8,30.26,NNE,28,3.5,3.5,70,0.00,CLR,,0.01,WeatherDisplay:10.37,2013-01-02 23:17:00,
2013-01-02 18:22:00,29.4,20.8,30.26,NNE,28,3.5,3.5,70,0.00,CLR,,0.01,WeatherDisplay:10.37,2013-01-02 23:22:00,
2013-01-02 18:27:00,29.3,20.7,30.26,NNE,28,1.0,0.0,70,0.00,CLR,,0.01,WeatherDisplay:10.37,2013-01-02 23:27:00,
2013-01-02 18:32:00,29.1,20.9,30.26,NNE,28,3.0,3.0,71,0.00,CLR,,0.01,WeatherDisplay:10.37,2013-01-02 23:32:00,
2013-01-02 18:37:00,29.0,20.8,30.27,NNE,28,2.3,2.3,71,0.00,CLR,,0.01,WeatherDisplay:10.37,2013-01-02 23:37:00,
2013-01-02 18:42:00,29.0,20.8,30.27,NNE,28,0.0,0.0,71,0.00,CLR,,0.01,WeatherDisplay:10.37,2013-01-02 23:42:00,
2013-01-02 18:47:00,29.0,20.8,30.27,NNE,28,1.1,0.0,71,0.00,CLR,,0.01,WeatherDisplay:10.37,2013-01-02 23:47:00,
2013-01-02 18:52:00,28.9,20.7,30.27,NNE,28,0.0,0.0,71,0.00,CLR,,0.01,WeatherDisplay:10.37,2013-01-02 23:52:00,
2013-01-02 18:57:00,28.8,20.9,30.27,NNE,28,0.0,0.0,72,0.00,CLR,,0.01,WeatherDisplay:10.37,2013-01-02 23:57:00,
2013-01-02 19:02:00,28.8,20.9,30.27,NNE,28,0.0,0.0,72,0.00,CLR,,0.01,WeatherDisplay:10.37,2013-01-03 00:02:00,
2013-01-02 19:07:00,28.7,20.8,30.27,NNE,28,1.0,0.0,72,0.00,CLR,,0.01,WeatherDisplay:10.37,2013-01-03 00:07:00,
2013-01-02 19:12:00,28.7,20.8,30.27,NNE,28,1.1,0.0,72,0.00,CLR,,0.01,WeatherDisplay:10.37,2013-01-03 00:12:00,
2013-01-02 19:17:00,28.7,20.8,30.27,NNE,28,0.0,0.0,72,0.00,CLR,,0.01,WeatherDisplay:10.37,2013-01-03 00:17:00,
2013-01-02 19:22:00,28.6,20.7,30.27,NNE,28,0.0,0.0,72,0.00,CLR,,0.01,WeatherDisplay:10.37,2013-01-03 00:22:00,
2013-01-02 19:27:00,28.5,20.6,30.28,NNE,28,0.0,0.0,72,0.00,CLR,,0.01,WeatherDisplay:10.37,2013-01-03 00:27:00,
2013-01-02 19:32:00,28.5,20.6,30.28,NNE,28,0.0,0.0,72,0.00,CLR,,0.01,WeatherDisplay:10.37,2013-01-03 00:32:00,
2013-01-02 19:38:00,28.4,20.8,30.28,NNE,28,0.0,0.0,73,0.00,CLR,,0.01,WeatherDisplay:10.37,2013-01-03 00:38:00,
2013-01-02 19:43:00,28.4,20.8,30.28,NNE,28,0.0,0.0,73,0.00,CLR,,0.01,WeatherDisplay:10.37,2013-01-03 00:43:00,
2013-01-02 19:48:00,28.3,20.7,30.28,NNE,28,0.0,0.0,73,0.00,CLR,,0.01,WeatherDisplay:10.37,2013-01-03 00:48:00,
2013-01-02 19:53:00,28.1,20.6,30.28,NNE,28,0.0,0.0,73,0.00,CLR,,0.01,WeatherDisplay:10.37,2013-01-03 00:53:00,
2013-01-02 19:58:00,28.0,20.8,30.28,NNE,28,0.0,0.0,74,0.00,CLR,,0.01,WeatherDisplay:10.37,2013-01-03 00:58:00,
2013-01-02 20:03:00,27.9,20.7,30.28,NNE,28,0.0,0.0,74,0.00,CLR,,0.01,WeatherDisplay:10.37,2013-01-03 01:03:00,
2013-01-02 20:08:00,27.8,20.6,30.28,NNE,28,0.0,0.0,74,0.00,CLR,,0.01,WeatherDisplay:10.37,2013-01-03 01:08:00,
2013-01-02 20:13:00,27.6,20.4,30.28,NNE,28,0.0,0.0,74,0.00,CLR,,0.01,WeatherDisplay:10.37,2013-01-03 01:13:00,
2013-01-02 20:18:00,27.7,20.8,30.29,NNE,28,0.0,0.0,75,0.00,CLR,,0.01,WeatherDisplay:10.37,2013-01-03 01:18:00,
2013-01-02 20:23:00,27.6,20.7,30.28,NNE,28,0.0,0.0,75,0.00,CLR,,0.01,WeatherDisplay:10.37,2013-01-03 01:23:00,
2013-01-02 20:28:00,27.5,20.6,30.28,NNE,28,0.0,0.0,75,0.00,CLR,,0.01,WeatherDisplay:10.37,2013-01-03 01:28:00,
2013-01-02 20:33:00,27.4,20.5,30.28,NNE,28,0.0,0.0,75,0.00,CLR,,0.01,WeatherDisplay:10.37,2013-01-03 01:33:00,
2013-01-02 20:38:00,27.6,20.7,30.28,NNE,28,0.0,0.0,75,0.00,CLR,,0.01,WeatherDisplay:10.37,2013-01-03 01:38:00,
2013-01-02 20:43:00,27.6,21.0,30.28,NNE,28,0.0,0.0,76,0.00,CLR,,0.01,WeatherDisplay:10.37,2013-01-03 01:43:00,
2013-01-02 20:48:00,27.7,20.8,30.28,NNE,28,0.0,0.0,75,0.00,CLR,,0.01,WeatherDisplay:10.37,2013-01-03 01:48:00,
2013-01-02 20:53:00,27.7,20.8,30.28,NNE,28,0.0,0.0,75,0.00,CLR,,0.01,WeatherDisplay:10.37,2013-01-03 01:53:00,
2013-01-02 20:58:00,27.7,20.8,30.28,NNE,28,0.0,0.0,75,0.00,CLR,,0.01,WeatherDisplay:10.37,2013-01-03 01:58:00,
2013-01-02 21:03:00,27.7,20.8,30.28,NNE,28,0.0,0.0,75,0.00,CLR,,0.01,WeatherDisplay:10.37,2013-01-03 02:03:00,
2013-01-02 21:08:00,27.8,20.9,30.28,NNE,28,0.0,0.0,75,0.00,CLR,,0.01,WeatherDisplay:10.37,2013-01-03 02:08:00,
2013-01-02 21:13:00,27.7,20.8,30.29,NNE,28,0.0,0.0,75,0.00,CLR,,0.01,WeatherDisplay:10.37,2013-01-03 02:13:00,
2013-01-02 21:18:00,27.6,21.0,30.29,NNE,28,0.0,0.0,76,0.00,CLR,,0.01,WeatherDisplay:10.37,2013-01-03 02:18:00,
2013-01-02 21:23:00,27.5,20.9,30.29,NNE,28,0.0,0.0,76,0.00,CLR,,0.01,WeatherDisplay:10.37,2013-01-03 02:23:00,
2013-01-02 21:28:00,27.4,20.5,30.29,NNE,28,1.1,0.0,75,0.00,CLR,,0.01,WeatherDisplay:10.37,2013-01-03 02:28:00,
2013-01-02 21:33:00,27.3,20.4,30.28,NNE,28,0.0,0.0,75,0.00,CLR,,0.01,WeatherDisplay:10.37,2013-01-03 02:33:00,
2013-01-02 21:38:00,27.2,20.0,30.29,NNE,28,0.0,0.0,74,0.00,CLR,,0.01,WeatherDisplay:10.37,2013-01-03 02:38:00,
2013-01-02 21:43:00,27.2,20.0,30.29,NNE,28,0.0,0.0,74,0.00,CLR,,0.01,WeatherDisplay:10.37,2013-01-03 02:43:00,
2013-01-02 21:48:00,27.1,19.9,30.29,NNE,28,0.0,0.0,74,0.00,CLR,,0.01,WeatherDisplay:10.37,2013-01-03 02:48:00,
2013-01-02 21:53:00,27.1,19.9,30.29,NNE,28,0.0,0.0,74,0.00,CLR,,0.01,WeatherDisplay:10.37,2013-01-03 02:53:00,
2013-01-02 21:58:00,27.1,19.9,30.29,NNE,28,0.0,0.0,74,0.00,CLR,,0.01,WeatherDisplay:10.37,2013-01-03 02:58:00,
2013-01-02 22:03:00,27.1,19.9,30.29,NNE,28,0.0,0.0,74,0.00,CLR,,0.01,WeatherDisplay:10.37,2013-01-03 03:03:00,
2013-01-02 22:08:00,27.0,19.8,30.29,NNE,28,0.0,0.0,74,0.00,CLR,,0.01,WeatherDisplay:10.37,2013-01-03 03:08:00,
2013-01-02 22:13:00,27.0,19.8,30.29,NNE,28,0.0,0.0,74,0.00,CLR,,0.01,WeatherDisplay:10.37,2013-01-03 03:13:00,
2013-01-02 22:18:00,26.9,20.0,30.29,NNE,28,0.0,0.0,75,0.00,CLR,,0.01,WeatherDisplay:10.37,2013-01-03 03:18:00,
2013-01-02 22:23:00,26.8,19.9,30.29,NNE,28,0.0,0.0,75,0.00,CLR,,0.01,WeatherDisplay:10.37,2013-01-03 03:23:00,
2013-01-02 22:28:00,26.8,19.9,30.28,NNE,28,0.0,0.0,75,0.00,CLR,,0.01,WeatherDisplay:10.37,2013-01-03 03:28:00,
2013-01-02 22:33:00,26.7,19.8,30.29,NNE,28,0.0,0.0,75,0.00,CLR,,0.01,WeatherDisplay:10.37,2013-01-03 03:33:00,
2013-01-02 22:39:00,26.6,19.7,30.28,NNE,28,0.0,0.0,75,0.00,CLR,,0.01,WeatherDisplay:10.37,2013-01-03 03:39:00,
2013-01-02 22:44:00,26.5,19.6,30.29,NNE,28,0.0,0.0,75,0.00,CLR,,0.01,WeatherDisplay:10.37,2013-01-03 03:44:00,
2013-01-02 22:49:00,26.2,19.7,30.29,NNE,28,0.0,0.0,76,0.00,CLR,,0.01,WeatherDisplay:10.37,2013-01-03 03:49:00,
2013-01-02 22:54:00,26.2,19.7,30.28,NNE,28,0.0,0.0,76,0.00,CLR,,0.01,WeatherDisplay:10.37,2013-01-03 03:54:00,
2013-01-02 23:00:00,26.2,19.7,30.29,NNE,28,0.0,0.0,76,0.00,CLR,,0.01,WeatherDisplay:10.37,2013-01-03 04:00:00,
2013-01-02 23:05:00,26.1,19.6,30.28,NNE,28,0.0,0.0,76,0.00,CLR,,0.01,WeatherDisplay:10.37,2013-01-03 04:05:00,
2013-01-02 23:10:00,26.0,19.5,30.28,NNE,28,0.0,0.0,76,0.00,CLR,,0.01,WeatherDisplay:10.37,2013-01-03 04:10:00,
2013-01-02 23:15:00,26.0,19.5,30.28,NNE,28,0.0,0.0,76,0.00,CLR,,0.01,WeatherDisplay:10.37,2013-01-03 04:15:00,
2013-01-02 23:20:00,25.9,19.4,30.28,NNE,28,0.0,0.0,76,0.00,CLR,,0.01,WeatherDisplay:10.37,2013-01-03 04:20:00,
2013-01-02 23:25:00,25.7,19.5,30.28,NNE,28,0.0,0.0,77,0.00,CLR,,0.01,WeatherDisplay:10.37,2013-01-03 04:25:00,
2013-01-02 23:30:00,25.5,19.3,30.28,NNE,28,0.0,0.0,77,0.00,CLR,,0.01,WeatherDisplay:10.37,2013-01-03 04:30:00,
2013-01-02 23:35:00,25.4,19.2,30.29,NNE,28,0.0,0.0,77,0.00,CLR,,0.01,WeatherDisplay:10.37,2013-01-03 04:35:00,
2013-01-02 23:40:00,25.4,19.2,30.28,NNE,28,0.0,0.0,77,0.00,CLR,,0.01,WeatherDisplay:10.37,2013-01-03 04:40:00,
2013-01-02 23:45:00,25.3,19.4,30.28,NNE,28,0.0,0.0,78,0.00,CLR,,0.01,WeatherDisplay:10.37,2013-01-03 04:45:00,
2013-01-02 23:50:00,25.3,19.4,30.29,NNE,28,0.0,0.0,78,0.00,CLR,,0.01,WeatherDisplay:10.37,2013-01-03 04:50:00,
2013-01-02 23:55:00,25.3,19.4,30.28,NNE,28,0.0,0.0,78,0.00,CLR,,0.01,WeatherDisplay:10.37,2013-01-03 04:55:00,